{"data":{"norad_id":60351,"intl_designator":"2024-136Y","name":"STARLINK-32097","alt_names":[],"object_type":"PAYLOAD","status":"ACTIVE","operator":null,"country":"US","launch_date":"2024-08-02","launch_site_code":"AFETR","launch_vehicle":null,"mission":null,"orbit_class":"UNKNOWN","rcs_meters":null,"size_class":null,"mass_kg":null,"dimensions":null,"purposes":["comms"],"wikipedia_slug":null,"has_3d_model":false,"image_url":null,"decayed_at":null,"tle_current":{"epoch":"2026-09-21T15:28:24.271104Z","epoch_age_seconds":86729,"freshness":"FRESH","line1":"1 60351U 24136Y   26264.64472536 -.00000728  00000+0 -10420-4 0  9997","line2":"2 60351  53.1596 240.6839 0001369  90.1520 269.9639 15.34386035119737","mean_motion":15.34386035,"eccentricity":0.0001369,"inclination_deg":53.1596,"raan_deg":240.6839,"arg_perigee_deg":90.152,"mean_anomaly_deg":269.9639,"bstar":-1.042e-5,"rev_number":11973,"period_min":93.848612223586,"perigee_km":461.80823073368,"apogee_km":463.68126415613,"semimajor_km":6840.8817474449,"source":"CELESTRAK","updated_at":"2026-09-22T09:00:49.223316Z"}}}